Station NBGM3 - 8447627 - New Bedford, Barrier Gate, MA Image indicating link to RSS feed of recent meteorological observations for station NBGM3


Conditions at NBGM3 as of
(5:48 pm EDT)
2148 GMT on 06/12/2024:
     

Click on the graph icon in the table below to see a time series plot of the last five days of that observation.

5-day plot - Wind Direction Wind Direction (WDIR):WSW ( 250 deg true )
5-day plot - Wind Speed Wind Speed (WSPD): 15.0 kts
5-day plot - Wind Gust Wind Gust (GST): 17.1 kts
5-day plot - Atmospheric Pressure Atmospheric Pressure (PRES):29.96 in
5-day plot - Wind Speed at 10 Meters Wind Speed at 10 meters (WSPD10M): 15.5 kts
5-day plot - Wind Speed at 20 Meters Wind Speed at 20 meters (WSPD20M): 17.5 kts
5-day plot -  Wind Speed, Wind Gust and Atmospheric Pressure Combined plot of Wind Speed, Gust, and Air Pressure
NOS Water Level Observation Network Water Level
Previous observations
TIME
(EDT)
5-day plot - Wind Direction
WDIR
 
5-day plot - Wind Speed
WSPD
kts
5-day plot - Wind Gust
GST
kts
5-day plot - Wave Height
WVHT
ft
5-day plot - Dominant Wave Period
DPD
sec
5-day plot - Average Wave Period
APD
sec
5-day plot - Mean Wave Direction
MWD
 
5-day plot - Atmospheric Pressure
PRES
in
5-day plot - Pressure Tendency
PTDY
in
5-day plot - Air Temperature
ATMP
°F
5-day plot - Water Temperature
WTMP
°F
5-day plot - Dew Point
DEWP
°F
5-day plot - Salinity
SAL
psu
5-day plot - Visibility
VIS
nmi
5-day plot - Tide (above MLLW)
TIDE
ft
2024-06-12 05:42 pmWSW 17.1 19.0----29.96-------
2024-06-12 05:36 pmWSW 17.1 22.0----29.96-------
2024-06-12 05:30 pm-------29.96- 73.0-----
2024-06-12 05:24 pm-------29.96- 72.9-----
2024-06-12 05:18 pmWSW 9.9 15.9----29.96- 74.1-----
2024-06-12 05:12 pm SW 13.0 15.9----29.96- 74.1-----
2024-06-12 05:06 pmSSW 12.0 15.0----29.96- 73.9-----
2024-06-12 05:00 pm SW 13.0 15.0----29.96-0.02------
2024-06-12 04:54 pmWSW 12.0 15.0----29.96-------
2024-06-12 04:48 pmWSW 13.0 15.0----29.96-------
2024-06-12 04:42 pmWSW 12.0 15.0----29.96-------
2024-06-12 04:36 pmWSW 12.0 15.0----29.96-------
2024-06-12 04:30 pm SW 14.0 15.9----29.96- 73.6-----
2024-06-12 04:24 pm SW 11.1 15.9----29.96- 73.6-----
2024-06-12 04:18 pmWSW 11.1 15.0----29.96- 73.4-----
2024-06-12 04:12 pm SW 12.0 15.0----29.96- 73.6-----
2024-06-12 04:06 pmWSW 12.0 14.0----29.96- 73.6-----
2024-06-12 04:00 pm SW 12.0 15.0----29.96-0.04------
2024-06-12 03:54 pm SW 11.1 14.0----29.96-------
2024-06-12 03:48 pmWSW 11.1 14.0----29.96-------
2024-06-12 03:42 pmWSW 9.9 15.0----29.97-------
2024-06-12 03:36 pm SW 13.0 15.0----29.97-------
2024-06-12 03:30 pm SW 13.0 17.1----29.97- 73.8-----
2024-06-12 03:24 pm SW 12.0 15.0----29.97- 74.3-----
2024-06-12 03:18 pm SW 12.0 15.9----29.97- 73.9-----
2024-06-12 03:12 pmSSW 12.0 15.9----29.97- 72.7-----
2024-06-12 03:06 pm S 13.0 15.9----29.97- 72.1-----
2024-06-12 03:00 pm S 14.0 17.1----29.97-0.03 71.8-----
2024-06-12 02:54 pm S 14.0 15.9----29.97- 71.6-----
2024-06-12 02:48 pm S 15.0 15.9----29.97-------
2024-06-12 02:42 pm S 15.0 15.9----29.97-------
2024-06-12 02:36 pm S 14.0 15.0----29.97-------
2024-06-12 02:30 pm S 14.0 15.9----29.97- 72.9-----
2024-06-12 02:24 pm S 13.0 15.0----29.97- 72.9-----
2024-06-12 02:18 pm S 14.0 15.9----29.97-------
2024-06-12 02:12 pm S 14.0 15.0----29.98-------
2024-06-12 02:06 pm S 13.0 15.0----29.98-------
2024-06-12 02:00 pm S 11.1 13.0----29.98-0.01------
2024-06-12 01:54 pmSSW 9.9 13.0----29.98-------
2024-06-12 01:48 pmSSW 11.1 12.0----29.98-------
2024-06-12 01:42 pmSSW 11.1 14.0----29.98-------
2024-06-12 01:36 pm SW 11.1 13.0----29.99-------
2024-06-12 01:30 pm SW 13.0 15.0----29.99- 71.2-----
2024-06-12 01:24 pmSSW 12.0 13.0----29.99- 71.6-----
2024-06-12 01:18 pmSSW 11.1 13.0----29.99-------
2024-06-12 01:12 pmSSW 12.0 14.0----29.99-------
2024-06-12 01:06 pmSSW 12.0 14.0----30.00-------
2024-06-12 01:00 pm-------30.00+0.00 72.5-----
2024-06-12 12:54 pm-------30.00- 72.3-----
2024-06-12 12:48 pmSSW 9.9 12.0----30.00-------
2024-06-12 12:42 pmSSW 11.1 12.0----30.00-------
2024-06-12 12:36 pmSSW 8.9 11.1----30.00-------
2024-06-12 12:30 pmSSW 8.9 12.0----30.00- 72.7-----
2024-06-12 12:24 pmSSW 9.9 12.0----30.00- 72.7-----
2024-06-12 12:18 pmSSW 8.0 12.0----30.00-------
2024-06-12 12:12 pmSSW 9.9 13.0----30.00-------
2024-06-12 12:06 pmSSW 12.0 14.0----30.00-------
2024-06-12 12:00 pm-------30.00+0.00 72.5-----
2024-06-12 11:54 am-------30.00- 72.7-----
2024-06-12 11:48 amSSW 12.0 14.0----30.00- 72.0-----
2024-06-12 11:42 amSSW 11.1 13.0----30.00- 72.3-----
2024-06-12 11:36 amSSW 12.0 13.0----30.00- 72.9-----
2024-06-12 11:30 amSSW 9.9 12.0----30.00- 72.7-----
2024-06-12 11:24 amSSW 11.1 12.0----30.00- 72.3-----
2024-06-12 11:18 amSSW 11.1 12.0----30.00- 72.3-----
2024-06-12 11:12 amSSW 9.9 12.0----30.00- 72.3-----
2024-06-12 11:06 amSSW 9.9 12.0----30.00- 72.0-----
2024-06-12 11:00 amSSW 9.9 12.0----30.00-0.01------
2024-06-12 10:54 amSSW 9.9 12.0----30.00-------
2024-06-12 10:48 amSSW 9.9 11.1----30.00-------
2024-06-12 10:42 amSSW 9.9 11.1----30.00-------
2024-06-12 10:36 amSSW 9.9 12.0----30.00-------
2024-06-12 10:30 am S 12.0 13.0----30.00- 72.7-----
2024-06-12 10:24 am S 11.1 12.0----30.00- 72.7-----
2024-06-12 10:18 am S 11.1 13.0----30.00-------
2024-06-12 10:12 am S 12.0 13.0----30.00-------
2024-06-12 10:06 am S 13.0 14.0----30.00-------
2024-06-12 10:00 am S 12.0 13.0----30.00+0.00 72.5-----
2024-06-12 09:54 am S 12.0 13.0----30.00- 72.9-----
2024-06-12 09:48 am S 11.1 13.0----30.00-------
2024-06-12 09:42 am S 9.9 12.0----30.00-------
2024-06-12 09:36 am S 8.9 11.1----30.00-------
2024-06-12 09:30 am S 9.9 11.1----30.00- 73.2-----
2024-06-12 09:24 am S 8.9 9.9----30.00- 73.0-----
2024-06-12 09:18 am S 8.9 9.9----30.00- 72.1-----
2024-06-12 09:12 am S 8.9 11.1----30.00- 71.8-----
2024-06-12 09:06 am S 9.9 11.1----30.00- 71.8-----
2024-06-12 09:00 am S 8.9 9.9----30.00+0.01 72.1-----
2024-06-12 08:54 am S 8.0 8.9----30.00- 73.0-----
2024-06-12 08:48 am S 7.0 8.0----30.00- 71.4-----
2024-06-12 08:42 am S 1.9 2.9----30.00- 69.4-----
2024-06-12 08:36 am S 2.9 2.9----30.00- 71.1-----
2024-06-12 08:30 am S 1.9 1.9----30.00- 70.9-----
2024-06-12 08:24 am S 1.9 2.9----30.00- 70.5-----
2024-06-12 08:18 am S 2.9 4.1----30.00- 69.3-----
2024-06-12 08:12 amSSE 4.1 5.1----30.00- 67.8-----
2024-06-12 08:06 amSSE 4.1 5.1----30.01- 66.6-----
2024-06-12 08:00 amSSE 2.9 4.1----30.01+0.03 66.9-----
2024-06-12 07:54 amSSE 4.1 4.1----30.01- 69.4-----
2024-06-12 07:48 am S 2.9 2.9----30.00-------
2024-06-12 07:42 am SW 1.0 2.9----30.00-------
2024-06-12 07:36 amSSW 2.9 2.9----30.00-------
2024-06-12 07:30 am SW 1.9 1.9----30.00- 71.1-----
2024-06-12 07:24 am- 0.0 4.1----29.99- 70.0-----
2024-06-12 07:18 amWNW 2.9 4.1----29.99- 68.9-----
2024-06-12 07:12 am W 1.9 4.1----29.99- 68.0-----
2024-06-12 07:06 am W 4.1 4.1----29.99- 67.3-----
2024-06-12 07:00 am W 2.9 5.1----29.99+0.01 66.7-----
2024-06-12 06:54 am W 4.1 5.1----29.99- 66.6-----
2024-06-12 06:48 am W 2.9 5.1----29.99-------
2024-06-12 06:42 am W 4.1 5.1----29.99-------
2024-06-12 06:36 am W 2.9 5.1----29.99-------
2024-06-12 06:30 am W 4.1 5.1----29.99- 65.8-----
2024-06-12 06:24 am W 2.9 4.1----29.99- 65.5-----
2024-06-12 06:18 am SW 4.1 4.1----29.99-------
2024-06-12 06:12 amSSW 2.9 4.1----29.99-------
2024-06-12 06:06 am SW 4.1 4.1----29.99-------
2024-06-12 06:00 am SW 2.9 4.1----29.99+0.01 63.7-----
2024-06-12 05:54 amWSW 1.9 2.9----29.99- 62.8-----
2024-06-12 05:48 am SW 1.0 1.9----29.99-------
2024-06-12 05:42 am- 0.0 1.0----29.99-------
2024-06-12 05:36 am- 0.0 1.9----29.99-------
2024-06-12 05:24 am NE 1.0 2.9----29.99- 60.4-----
2024-06-12 05:18 am NW 2.9 4.1----29.99- 60.4-----
2024-06-12 05:12 amNNW 2.9 2.9----29.98- 60.4-----
2024-06-12 05:06 am- 0.0 1.9----29.98- 60.3-----
2024-06-12 05:00 am- 0.0 1.0----29.98+0.00------
2024-06-12 04:54 am- 0.0 0.0----29.98-------
2024-06-12 04:48 am- 0.0 1.0----29.98-------
2024-06-12 04:42 am W 1.0 1.0----29.98-------
2024-06-12 04:36 am NW 1.0 1.9----29.98-------
2024-06-12 04:30 am- 0.0 1.9----29.98- 60.4-----
2024-06-12 04:24 am NW 1.0 1.9----29.98- 60.4-----
2024-06-12 04:18 am- 0.0 1.0----29.98- 60.4-----
2024-06-12 04:12 am NW 1.0 1.9----29.98- 60.3-----
2024-06-12 04:06 am NW 1.0 1.0----29.98- 60.3-----
2024-06-12 04:00 am- 0.0 1.9----29.98+0.00------
2024-06-12 03:54 amWSW 1.9 1.9----29.98-------
2024-06-12 03:48 am- 0.0 1.0----29.98- 60.3-----
2024-06-12 03:42 am- 0.0 1.9----29.98- 60.4-----
2024-06-12 03:36 am W 1.0 1.9----29.98- 60.4-----
2024-06-12 03:30 am SW 1.9 2.9----29.98- 60.4-----
2024-06-12 03:24 amSSW 1.9 1.9----29.98- 60.4-----
2024-06-12 03:18 amWSW 1.9 1.9----29.98- 60.4-----
2024-06-12 03:12 amWNW 1.9 1.9----29.98- 60.4-----
2024-06-12 03:06 am- 0.0 1.9----29.98- 60.4-----
2024-06-12 03:00 amWSW 1.9 2.9----29.98+0.00 60.4-----
2024-06-12 02:54 amWSW 1.9 2.9----29.98- 60.3-----
2024-06-12 02:48 amWSW 1.9 1.9----29.98- 60.3-----
2024-06-12 02:42 amWSW 1.9 2.9----29.98- 60.3-----
2024-06-12 02:36 am W 1.9 2.9----29.98- 60.3-----
2024-06-12 02:30 amWSW 1.9 1.9----29.97-------
2024-06-12 02:24 am W 1.9 2.9----29.97-------
2024-06-12 02:18 amWNW 1.0 2.9----29.97- 60.4-----
2024-06-12 02:12 amWNW 1.9 2.9----29.97- 60.4-----
2024-06-12 02:06 amWNW 2.9 5.1----29.98- 60.4-----
2024-06-12 02:00 am NW 4.1 5.1----29.98+0.00 60.6-----
2024-06-12 01:54 amNNW 2.9 4.1----29.98- 60.6-----
2024-06-12 01:48 amNNW 1.9 2.9----29.98-------
2024-06-12 01:42 amNNW 2.9 4.1----29.98-------
2024-06-12 01:36 amNNW 2.9 4.1----29.98-------
2024-06-12 01:30 amNNW 2.9 4.1----29.98-------
2024-06-12 01:24 amNNW 2.9 4.1----29.98-------
2024-06-12 01:18 am-------29.98- 61.0-----
2024-06-12 01:12 am-------29.98- 61.2-----
2024-06-12 01:06 am-------29.98- 61.3-----
2024-06-12 01:00 am W 1.9 4.1----29.98+0.01 61.3-----
2024-06-12 12:54 am W 2.9 5.1----29.98- 61.3-----
2024-06-12 12:48 am W 4.1 5.1----29.98- 61.5-----
2024-06-12 12:42 am W 2.9 5.1----29.98- 61.3-----
2024-06-12 12:36 amWNW 2.9 5.1----29.98- 61.2-----
2024-06-12 12:30 am NW 4.1 5.1----29.98- 61.2-----
2024-06-12 12:24 amNNW 2.9 5.1----29.98- 61.2-----
2024-06-12 12:18 amNNW 2.9 5.1----29.98- 61.3-----
2024-06-12 12:12 amWNW 2.9 4.1----29.98- 61.3-----
2024-06-12 12:06 am W 4.1 6.0----29.98- 61.5-----
2024-06-12 12:00 am W 1.9 5.1----29.98+0.03------
2024-06-11 11:54 pm W 1.9 6.0----29.98-------
2024-06-11 11:48 pm W 2.9 6.0----29.98- 61.7-----
2024-06-11 11:42 pm W 4.1 6.0----29.98- 61.7-----
2024-06-11 11:36 pmWNW 4.1 6.0----29.98- 61.7-----
2024-06-11 11:30 pm W 5.1 6.0----29.98-------
2024-06-11 11:24 pm W 4.1 5.1----29.97-------
2024-06-11 11:18 pm W 4.1 7.0----29.98- 61.9-----
2024-06-11 11:12 pm W 6.0 8.0----29.97- 62.1-----
2024-06-11 11:06 pm W 7.0 8.9----29.97- 62.1-----
2024-06-11 11:00 pm W 7.0 8.9----29.97+0.03 62.2-----
2024-06-11 10:54 pm W 5.1 7.0----29.97- 62.2-----
2024-06-11 10:48 pm W 5.1 5.1----29.97-------
2024-06-11 10:42 pm W 4.1 5.1----29.97-------
2024-06-11 10:36 pm W 4.1 5.1----29.97-------
2024-06-11 10:30 pm W 2.9 5.1----29.97- 62.6-----
2024-06-11 10:24 pm W 4.1 5.1----29.97- 62.8-----
2024-06-11 10:18 pmWSW 5.1 6.0----29.97- 62.8-----
2024-06-11 10:12 pmWSW 4.1 5.1----29.97- 63.0-----
2024-06-11 10:06 pmWSW 4.1 5.1----29.97- 63.0-----
2024-06-11 10:00 pm W 4.1 5.1----29.97+0.03 63.0-----
2024-06-11 09:54 pm W 2.9 5.1----29.97- 63.1-----
2024-06-11 09:48 pm W 4.1 7.0----29.96-------
2024-06-11 09:42 pmWNW 4.1 6.0----29.96-------
2024-06-11 09:36 pm W 5.1 7.0----29.96-------
2024-06-11 09:30 pm W 4.1 7.0----29.96-------
2024-06-11 09:24 pm W 4.1 7.0----29.96-------
2024-06-11 09:18 pm W 5.1 8.0----29.96-------
2024-06-11 09:12 pm W 6.0 8.9----29.96-------
2024-06-11 09:06 pm W 6.0 8.9----29.96-------
2024-06-11 09:00 pm-------29.95+0.03 63.1-----
2024-06-11 08:54 pm-------29.95- 63.3-----
2024-06-11 08:48 pm W 8.0 9.9----29.95-------
2024-06-11 08:42 pm W 7.0 9.9----29.96-------
2024-06-11 08:36 pmWSW 7.0 9.9----29.95-------
2024-06-11 08:30 pmWSW 7.0 8.9----29.95-------
2024-06-11 08:24 pmWSW 8.0 8.9----29.95-------
2024-06-11 08:18 pmWSW 7.0 8.9----29.95- 63.9-----
2024-06-11 08:12 pmWSW 8.0 9.9----29.95- 64.0-----
2024-06-11 08:06 pmWSW 7.0 8.9----29.95- 64.2-----
2024-06-11 08:00 pm-------29.94+0.02 64.2-----
2024-06-11 07:54 pm-------29.95- 64.8-----
2024-06-11 07:48 pmWSW 7.0 9.9----29.95-------
2024-06-11 07:42 pmWSW 7.0 8.9----29.95-------
2024-06-11 07:36 pmWSW 8.9 11.1----29.94-------
2024-06-11 07:30 pmWSW 8.9 11.1----29.94-------
2024-06-11 07:24 pmWSW 8.9 12.0----29.94-------
2024-06-11 07:00 pmWSW 11.1 12.0----29.93+0.01 65.8-----
2024-06-11 06:54 pm SW 9.9 12.0----29.93- 66.4-----
2024-06-11 06:48 pm SW 9.9 13.0----29.93- 66.6-----
2024-06-11 06:42 pm SW 12.0 12.0----29.93- 66.6-----
2024-06-11 06:36 pmWSW 11.1 13.0----29.93- 66.6-----
2024-06-11 06:30 pm SW 12.0 14.0----29.93- 66.7-----
2024-06-11 06:24 pm SW 12.0 13.0----29.93- 66.7-----
2024-06-11 06:18 pm SW 12.0 15.9----29.93- 66.6-----
2024-06-11 06:12 pmSSW 14.0 15.0----29.93- 66.7-----
2024-06-11 06:06 pmSSW 12.0 13.0----29.93- 67.5-----
2024-06-11 06:00 pm SW 11.1 12.0----29.93+0.01------
2024-06-11 05:54 pmSSW 11.1 13.0----29.92-------